Temperature
17 17 16 16 15 15 15 14 14 14 14 13 13 13 13 13 13 13 13 13 13 13 12 13 13 13 13 13 13 13 14 14 14 14 14 14 14 14 14 14 14 15 15
17 17 16 16 15 15 15 14 14 14 14 14 13 13 13 13 13 13 13 13 13 13 13 13 13 13 13 13 13 13 13 13 14 14 13 14 14 14 14 14 14 14 14
17 17 16 16 16 15 15 15 14 14 14 14 14 14 14 13 13 13 13 13 13 13 13 13 13 13 13 13 13 13 13 13 13 13 13 13 13 13 13 13 13 14 14
17 17 17 16 16 16 15 15 15 14 14 14 14 14 14 14 13 13 13 13 13 13 13 13 13 12 12 13 13 13 13 13 13 13 13 13 13 13 13 13 13 13 13
18 17 17 16 16 16 15 15 15 15 14 14 14 14 14 14 14 13 13 13 13 13 13 13 13 13 13 12 12 12 12 12 12 12 12 12 12 12 13 13 13 13 13
18 17 17 16 16 16 16 15 15 15 15 14 14 14 14 14 14 14 13 13 13 13 13 13 13 13 13 13 12 12 12 12 12 12 12 12 12 12 12 12 12 13 13
17 17 17 16 16 16 16 15 15 15 15 15 15 14 14 14 14 14 14 13 13 13 13 13 13 13 13 12 12 12 12 12 12 12 12 12 12 12 12 12 12 12 12
17 17 16 16 16 16 16 16 16 15 15 15 15 15 14 14 14 14 14 13 13 13 13 13 13 13 13 12 12 12 12 12 12 12 12 12 12 12 12 12 12 12 12
16 16 16 16 16 16 16 16 16 15 15 15 15 15 15 15 14 14 14 13 13 13 13 13 13 13 13 12 12 12 12 12 12 12 12 12 12 12 12 12 12 11 11
15 16 16 16 16 16 16 16 16 16 15 15 15 15 15 15 14 14 14 13 13 13 13 13 13 13 12 12 12 12 12 12 12 12 12 12 11 11 11 11 11 11 11
15 15 16 16 16 16 16 16 16 16 15 15 15 15 15 15 14 14 14 14 13 13 13 13 13 12 12 12 12 12 12 12 12 12 12 11 11 11 11 11 11 11 11
14 15 15 15 16 16 16 16 16 15 15 15 15 15 15 15 15 14 14 14 13 13 13 13 12 12 12 12 12 12 12 12 12 11 11 11 11 11 11 11 11 11 10
13 14 14 15 15 15 15 16 15 15 15 15 15 15 15 15 15 14 14 14 13 13 13 13 12 12 12 12 12 12 11 11 11 11 11 11 11 11 10 10 10 10 10
12 12 13 13 14 14 14 15 15 15 15 15 15 15 15 15 15 15 14 14 14 13 13 12 12 12 11 11 11 11 11 11 11 11 11 10 10 10 10 10 10 10 9
11 11 12 12 12 13 13 14 14 14 14 14 15 15 15 15 15 15 14 14 14 13 13 12 12 11 11 11 11 11 11 11 10 10 10 10 10 10 9 9 9 9 9
10 10 10 11 11 11 12 13 13 13 14 14 14 14 14 15 15 15 14 14 13 13 12 12 12 11 11 11 11 11 10 10 10 10 9 9 9 9 9 8 8 8 8
9 9 9 10 10 10 11 11 12 13 13 13 13 13 14 14 14 14 14 13 13 13 12 12 12 11 11 11 11 10 10 10 9 9 9 9 8 8 8 8 8 8 7
8 8 8 9 9 9 9 10 10 11 12 13 13 13 13 13 13 13 13 12 12 12 12 12 12 11 11 11 10 10 10 9 9 9 8 8 8 8 7 7 7 7 7
8 8 8 8 8 8 9 9 9 10 10 11 12 12 12 12 12 12 12 12 12 13 13 12 12 11 11 10 10 10 9 9 9 8 8 8 7 7 7 7 6 6 6
7 7 7 7 7 8 8 8 8 9 9 10 10 11 11 11 11 12 12 12 12 12 13 12 12 11 11 10 10 10 9 9 8 8 8 7 7 7 6 6 6 6 5
7 7 7 7 7 7 7 7 8 8 8 9 9 10 10 10 11 11 12 12 12 12 12 12 12 11 11 10 10 9 9 9 8 8 7 7 7 6 6 6 5 5 5
6 6 6 6 6 6 6 6 7 7 7 8 9 9 9 9 9 10 11 11 12 12 12 12 11 11 11 10 10 9 9 8 8 7 7 7 6 6 5 5 5 5 4
6 6 6 6 5 5 6 6 6 6 7 7 8 8 8 9 9 9 10 10 11 11 11 11 11 10 10 9 9 9 9 8 8 7 7 6 6 5 5 5 4 4 4
5 5 5 5 5 5 5 5 5 6 6 6 7 7 8 8 9 9 9 10 10 10 10 10 10 10 9 9 9 8 8 7 7 7 6 6 5 5 4 4 4 4 4
5 5 4 4 4 4 4 4 5 5 6 6 6 6 7 7 8 8 9 9 9 9 9 9 9 9 9 8 8 8 7 7 6 6 5 5 5 4 4 4 4 4 3
4 4 4 4 4 4 4 4 4 4 5 5 6 6 6 7 7 8 8 8 8 8 8 8 8 8 8 7 7 7 6 6 6 5 5 5 4 4 4 4 3 3 3
Wind_Speed
8 7 7 6 6 5 5 5 5 4 4 4 4 3 2 2 1 0 0 0 1 2 2 2 2 2 2 2 2 2 2 2 3 0 1 2 2 3 3 5 5 4 3
7 7 7 6 6 6 6 6 5 5 4 4 4 3 3 3 2 2 2 1 1 0 0 0 1 1 2 2 2 2 2 1 3 2 1 3 3 2 2 3 3 4 4
6 6 7 7 7 7 7 6 6 5 5 4 4 5 4 4 3 3 3 2 2 2 2 1 1 1 1 1 1 1 1 2 2 3 1 2 2 2 3 3 3 3 4
6 6 7 8 9 8 7 6 6 6 6 6 5 5 5 4 4 4 4 3 3 2 2 2 2 3 3 2 1 1 2 2 3 3 2 1 2 2 2 2 3 3 3
6 7 9 8 7 7 7 7 6 6 7 6 5 5 5 5 5 6 5 4 4 3 3 3 3 4 5 4 3 3 3 3 2 2 1 1 0 1 1 1 1 2 2
6 8 7 6 6 7 8 7 7 7 6 6 6 6 6 6 8 10 8 5 5 5 4 4 4 4 5 5 5 5 5 4 4 3 2 2 2 2 1 1 1 1 1
6 6 6 6 7 8 7 7 8 8 7 7 7 7 7 8 10 10 11 7 6 6 5 4 3 3 4 3 3 3 4 4 6 5 4 4 3 4 3 2 1 1 1
4 5 5 6 7 7 7 8 9 7 7 8 8 8 8 9 11 11 11 7 6 6 6 6 5 5 5 5 4 3 2 2 3 4 4 4 3 3 4 3 3 2 1
5 6 6 6 7 7 8 9 8 7 8 8 6 8 9 9 11 12 10 5 5 6 6 6 6 6 8 8 6 4 3 2 3 4 5 4 3 4 5 4 3 2 0
8 8 7 6 7 9 10 9 7 7 9 8 8 8 9 9 11 13 12 6 6 5 5 5 9 9 9 10 7 6 6 4 2 2 2 1 1 2 4 3 4 3 2
9 8 7 6 7 8 8 7 6 7 7 8 8 8 8 10 10 13 13 8 8 6 6 5 6 10 10 10 9 7 8 6 4 4 3 2 2 2 1 2 2 3 3
9 8 8 7 7 6 6 6 6 7 8 8 7 7 6 7 9 10 14 14 11 8 7 6 6 10 9 9 8 8 9 7 4 4 3 2 2 1 1 1 3 3 3
9 10 9 8 6 6 5 6 5 6 8 8 8 8 8 6 7 12 13 14 15 9 6 8 9 9 8 6 7 9 8 6 5 4 4 3 2 2 2 2 3 4 4
9 10 9 8 8 6 5 5 5 6 8 8 9 9 8 6 7 7 7 8 10 8 6 7 8 8 6 5 5 5 5 5 5 5 4 3 2 3 2 2 2 2 2
8 8 9 8 7 7 6 6 7 8 9 10 10 9 9 10 13 14 11 9 9 8 7 4 4 4 4 4 3 4 4 5 4 4 4 4 3 3 2 2 2 2 2
8 8 7 7 7 7 7 8 9 10 12 14 13 11 10 13 13 17 18 16 16 16 10 6 6 7 7 7 7 5 4 5 5 5 5 5 5 4 4 2 2 3 2
8 8 7 7 7 7 7 7 9 9 9 11 12 13 13 12 14 16 18 16 17 18 8 8 8 9 8 8 7 7 6 5 5 6 6 5 5 4 4 3 3 2 2
8 9 9 7 7 7 7 7 7 8 8 7 8 12 13 13 14 15 16 13 9 11 8 8 9 9 8 8 8 7 6 6 5 6 6 6 5 5 4 4 3 3 2
8 7 7 7 7 7 7 7 7 8 8 8 5 6 9 10 11 13 16 10 10 11 10 9 9 9 9 9 8 8 8 8 7 7 6 6 6 5 4 4 3 3 2
8 14 12 8 7 8 7 7 7 7 8 7 7 6 4 5 6 8 10 9 10 10 11 11 10 10 10 9 9 9 8 8 8 7 6 6 6 5 5 5 4 3 2
8 10 15 11 7 8 8 8 8 8 8 9 9 8 10 9 10 10 11 11 11 11 11 11 10 10 10 9 9 10 10 9 8 8 7 7 6 5 5 4 4 3 3
8 8 8 8 8 8 9 9 8 9 10 10 8 8 12 9 9 9 10 11 10 9 10 10 10 10 11 11 11 11 10 10 9 9 8 7 6 6 5 4 4 3 3
8 9 9 9 9 11 11 9 9 9 10 10 9 8 8 9 10 10 10 9 8 8 8 9 10 10 9 10 11 11 12 11 11 11 10 8 7 6 5 5 5 3 3
9 10 10 10 9 9 10 10 10 10 10 10 10 9 9 9 10 10 9 8 8 9 9 10 10 13 14 12 10 10 11 12 12 11 12 10 8 7 5 5 4 4 3
9 10 10 10 10 10 10 11 11 11 11 10 10 9 9 9 9 9 9 8 10 10 11 11 10 12 16 16 14 12 16 19 17 14 11 9 9 8 6 5 4 3 3
10 11 11 10 10 10 11 11 11 11 11 11 10 9 9 9 9 9 9 9 10 10 11 11 12 14 16 15 16 19 21 21 20 18 13 9 8 7 6 5 5 4 3
Wind_Direction
204 205 207 210 211 208 215 228 228 234 230 228 225 224 227 234 233 188 213 61 60 27 29 53 37 40 49 43 58 76 86 117 131 69 6 360 27 41 37 52 56 55 55
207 203 210 211 205 211 224 227 220 225 229 226 218 219 226 220 209 202 212 180 161 162 349 58 10 56 55 44 58 71 80 93 131 135 32 22 32 21 36 44 38 45 42
202 203 211 213 212 219 226 225 216 217 223 218 207 217 227 223 213 209 202 206 205 208 206 200 220 130 72 48 67 74 71 81 97 126 102 39 32 21 42 38 34 21 33
203 206 215 219 218 222 223 221 216 212 214 217 215 221 224 220 212 209 200 204 213 223 219 211 208 195 197 183 149 138 116 100 98 107 101 55 38 13 53 48 28 17 12
205 214 225 225 221 222 222 221 217 213 218 217 216 223 219 214 216 205 202 201 204 219 229 225 223 216 211 198 181 172 148 132 124 122 124 94 33 47 67 36 50 358 2
215 224 228 223 220 222 225 221 216 219 220 213 214 216 219 224 220 209 197 199 202 208 222 234 240 233 227 219 208 187 174 163 165 159 165 176 208 201 169 139 118 55 348
229 237 232 224 226 228 227 218 218 219 214 214 218 214 222 232 231 222 209 195 203 211 216 219 227 216 206 195 207 193 197 198 183 170 175 197 199 200 169 161 173 173 225
255 256 248 232 235 234 225 224 224 216 212 217 219 216 222 234 230 225 214 199 206 216 215 210 212 220 205 187 175 173 201 223 206 184 188 202 203 188 174 171 169 159 305
308 283 268 248 242 234 228 231 225 215 216 215 214 211 216 233 228 220 206 186 205 219 220 215 210 216 219 192 173 183 208 254 231 190 190 196 195 177 158 127 126 117 350
317 301 280 256 245 240 237 233 224 215 220 217 219 214 214 226 227 219 203 188 203 216 219 223 221 217 216 193 182 183 200 219 183 158 154 143 120 143 164 161 162 156 169
320 314 306 275 253 247 243 237 224 216 217 217 222 222 218 223 228 222 205 193 202 206 210 215 218 214 212 203 192 193 204 185 166 156 139 115 92 92 103 142 156 162 166
331 325 319 306 283 269 247 242 226 212 214 220 222 229 227 225 222 223 211 205 197 195 207 209 207 203 204 201 195 198 190 162 145 144 141 145 140 135 118 105 116 121 118
337 334 324 320 307 286 257 244 235 217 219 224 221 229 231 221 222 220 214 208 201 197 204 196 193 191 187 189 191 182 168 155 151 156 169 177 170 151 117 101 76 84 78
331 330 328 324 320 308 283 256 240 231 229 227 225 229 229 220 215 211 206 203 198 196 191 186 182 175 166 160 157 159 158 165 165 168 166 150 127 115 101 95 92 81 79
325 324 326 320 314 312 296 269 255 246 235 231 231 225 219 226 224 205 194 194 188 183 159 144 147 153 165 164 153 150 150 150 153 148 146 142 136 123 105 91 99 92 104
322 321 319 317 312 310 307 302 276 264 263 249 241 230 230 229 218 201 199 196 184 169 156 170 184 185 185 183 176 169 165 165 163 155 149 149 147 140 126 103 97 110 117
305 307 308 311 310 308 305 301 302 300 276 260 251 239 232 226 212 200 196 191 181 171 175 187 190 191 189 184 180 175 176 173 162 156 154 152 147 141 134 129 122 115 118
295 301 305 298 299 297 294 289 287 289 293 285 262 245 236 226 212 200 186 168 181 187 194 192 194 190 187 184 182 177 168 159 157 157 154 153 151 146 144 146 148 151 157
290 289 288 287 290 289 288 286 283 279 278 280 280 263 237 224 211 197 176 187 193 198 200 197 192 188 185 182 179 174 169 167 165 161 159 157 156 149 152 157 159 162 159
284 291 299 291 290 291 287 285 283 281 277 271 263 256 218 196 206 200 199 203 202 200 197 196 192 187 183 178 173 169 165 165 164 162 162 160 159 157 161 165 168 172 186
280 285 293 293 284 285 283 279 278 277 275 270 262 246 218 217 216 212 209 209 207 203 197 192 188 185 180 174 170 169 168 169 169 167 165 163 160 160 162 165 171 176 183
276 274 272 275 279 280 281 275 272 273 274 272 268 254 232 228 225 219 216 215 210 204 194 186 186 184 181 177 173 171 171 170 170 168 165 164 163 162 160 163 167 174 186
271 274 274 272 273 278 283 277 271 270 273 273 264 250 238 234 228 224 220 214 203 196 189 183 181 179 176 174 172 171 173 176 174 168 165 164 164 165 165 170 175 180 197
270 272 273 274 273 271 275 278 273 269 269 271 265 251 241 237 229 223 219 208 198 191 185 183 181 178 171 169 169 168 166 164 162 164 161 162 164 165 165 168 176 185 201
270 271 272 272 271 271 273 276 274 270 268 269 267 255 245 239 232 223 213 202 193 187 182 178 177 174 171 168 166 165 162 158 157 157 155 155 158 162 164 169 176 184 203
269 270 271 271 269 268 269 272 272 268 266 265 265 255 242 235 230 218 206 196 191 185 181 178 175 171 168 169 165 160 157 155 154 151 151 150 154 161 164 171 180 191 208
Height
1502 1503 1504 1505 1506 1506 1506 1507 1507 1507 1507 1506 1506 1506 1506 1505 1505 1504 1503 1503 1502 1502 1502 1502 1501 1501 1501 1501 1501 1502 1502 1504 1504 1506 1507 1508 1510 1510 1511 1512 1513 1514 1516
1500 1501 1502 1503 1503 1504 1504 1505 1505 1505 1505 1505 1505 1505 1505 1505 1504 1504 1504 1503 1503 1502 1502 1502 1502 1501 1501 1501 1501 1501 1502 1503 1504 1505 1506 1507 1508 1509 1510 1511 1512 1513 1514
1497 1498 1499 1499 1500 1501 1502 1503 1503 1503 1504 1504 1504 1504 1504 1504 1504 1503 1503 1503 1503 1503 1502 1502 1502 1502 1501 1501 1501 1501 1502 1503 1504 1504 1505 1506 1507 1508 1509 1510 1511 1512 1512
1494 1494 1495 1496 1497 1498 1499 1500 1501 1501 1501 1502 1502 1502 1502 1503 1503 1502 1502 1502 1502 1502 1502 1502 1502 1502 1502 1501 1501 1501 1502 1502 1503 1504 1505 1506 1507 1507 1508 1509 1509 1510 1511
1490 1491 1492 1493 1494 1495 1496 1497 1498 1498 1499 1499 1500 1500 1500 1501 1501 1501 1501 1501 1501 1501 1501 1501 1501 1501 1501 1501 1501 1501 1501 1502 1502 1503 1503 1504 1505 1506 1507 1507 1508 1509 1509
1486 1487 1488 1490 1491 1491 1492 1493 1494 1495 1496 1496 1497 1497 1498 1498 1499 1499 1499 1499 1499 1499 1500 1500 1500 1500 1500 1500 1500 1500 1501 1501 1501 1502 1503 1503 1504 1505 1505 1506 1507 1507 1508
1483 1484 1485 1486 1486 1487 1488 1489 1490 1490 1491 1492 1493 1494 1494 1495 1496 1496 1496 1496 1497 1497 1498 1498 1498 1499 1499 1499 1499 1499 1500 1500 1501 1501 1502 1502 1503 1503 1504 1504 1505 1505 1506
1480 1481 1481 1482 1482 1483 1483 1484 1485 1486 1486 1487 1488 1489 1490 1491 1492 1492 1493 1493 1493 1494 1494 1495 1496 1496 1497 1497 1497 1498 1498 1498 1499 1499 1500 1501 1502 1502 1502 1503 1503 1504 1504
1478 1477 1477 1477 1477 1478 1478 1478 1479 1480 1481 1482 1483 1484 1485 1486 1487 1488 1489 1489 1489 1490 1490 1491 1492 1493 1494 1494 1495 1495 1496 1496 1497 1498 1498 1499 1500 1500 1501 1501 1501 1502 1502
1475 1474 1473 1473 1472 1472 1472 1473 1474 1474 1475 1476 1477 1478 1479 1481 1482 1483 1484 1484 1484 1485 1486 1487 1488 1489 1490 1491 1491 1492 1493 1494 1495 1495 1496 1497 1497 1498 1498 1499 1499 1500 1500
1472 1471 1469 1468 1467 1467 1467 1467 1468 1468 1469 1470 1471 1472 1473 1475 1476 1477 1478 1478 1479 1480 1481 1482 1483 1484 1485 1486 1487 1489 1490 1491 1492 1492 1493 1494 1495 1495 1496 1496 1497 1497 1498
1469 1467 1464 1463 1462 1461 1460 1460 1461 1462 1462 1463 1464 1465 1466 1468 1469 1471 1472 1473 1474 1474 1475 1477 1478 1479 1480 1482 1483 1484 1486 1487 1488 1489 1490 1491 1492 1492 1493 1493 1494 1494 1495
1466 1463 1460 1458 1456 1455 1454 1453 1454 1454 1455 1455 1456 1457 1459 1461 1462 1464 1465 1466 1467 1468 1470 1471 1473 1474 1475 1477 1478 1480 1481 1482 1483 1484 1485 1487 1488 1489 1489 1490 1491 1491 1491
1462 1459 1456 1453 1450 1449 1448 1447 1446 1446 1447 1448 1449 1449 1451 1453 1455 1456 1458 1460 1461 1462 1464 1465 1467 1468 1469 1471 1473 1474 1476 1477 1479 1480 1481 1483 1484 1485 1486 1487 1487 1488 1488
1459 1455 1452 1449 1446 1443 1442 1441 1440 1439 1440 1440 1440 1442 1443 1444 1447 1449 1451 1452 1454 1456 1457 1459 1460 1462 1463 1465 1467 1469 1471 1472 1474 1475 1477 1478 1480 1481 1482 1483 1484 1484 1484
1454 1451 1448 1444 1441 1438 1435 1433 1432 1432 1432 1432 1433 1434 1435 1437 1440 1442 1443 1445 1447 1449 1450 1451 1453 1455 1457 1459 1461 1463 1465 1467 1469 1471 1473 1474 1476 1477 1478 1479 1480 1480 1480
1451 1447 1443 1440 1437 1433 1430 1427 1424 1423 1423 1423 1424 1425 1427 1428 1431 1433 1435 1438 1439 1441 1442 1443 1446 1448 1450 1453 1455 1458 1460 1462 1464 1466 1468 1470 1471 1473 1474 1475 1475 1476 1476
1446 1442 1439 1435 1432 1428 1425 1422 1419 1417 1414 1414 1415 1416 1418 1419 1422 1424 1427 1429 1430 1432 1433 1435 1438 1441 1444 1447 1449 1452 1455 1457 1459 1461 1463 1465 1467 1468 1470 1471 1471 1472 1472
1440 1436 1433 1429 1426 1423 1420 1416 1414 1411 1409 1407 1406 1407 1409 1410 1412 1415 1417 1419 1421 1422 1425 1428 1431 1434 1437 1440 1443 1446 1449 1451 1454 1456 1458 1460 1462 1464 1465 1466 1467 1468 1468
1434 1430 1427 1423 1420 1416 1413 1410 1407 1404 1402 1400 1399 1399 1400 1401 1402 1404 1406 1409 1412 1414 1417 1420 1424 1427 1430 1434 1437 1440 1443 1446 1448 1451 1453 1456 1458 1459 1461 1462 1463 1463 1464
1426 1423 1420 1417 1413 1410 1406 1403 1400 1397 1395 1393 1391 1391 1392 1392 1393 1395 1397 1400 1403 1406 1409 1413 1416 1420 1423 1427 1430 1433 1437 1440 1443 1446 1448 1451 1453 1454 1456 1457 1458 1459 1459
1419 1415 1412 1409 1405 1402 1399 1396 1393 1390 1387 1385 1383 1383 1383 1383 1384 1386 1388 1391 1394 1398 1401 1405 1408 1412 1416 1419 1423 1427 1430 1433 1437 1440 1443 1445 1447 1449 1451 1452 1453 1454 1454
1411 1407 1404 1401 1398 1394 1391 1388 1385 1382 1379 1377 1376 1375 1374 1374 1375 1376 1378 1381 1385 1389 1393 1396 1400 1404 1408 1413 1417 1421 1424 1427 1431 1434 1437 1440 1442 1444 1446 1447 1448 1448 1449
1402 1399 1395 1392 1389 1386 1382 1379 1377 1374 1371 1369 1368 1366 1365 1365 1365 1367 1370 1373 1376 1380 1384 1388 1392 1396 1401 1405 1410 1414 1418 1422 1426 1429 1432 1434 1437 1439 1440 1442 1443 1443 1443
1394 1390 1387 1383 1380 1376 1373 1370 1367 1365 1362 1360 1359 1357 1356 1356 1357 1358 1361 1364 1367 1371 1375 1379 1384 1389 1394 1398 1403 1408 1412 1416 1420 1423 1426 1429 1431 1433 1435 1436 1437 1438 1438
1384 1381 1377 1374 1370 1367 1364 1360 1357 1355 1352 1351 1349 1348 1348 1347 1348 1350 1352 1355 1359 1363 1367 1372 1377 1382 1387 1392 1397 1402 1406 1410 1414 1417 1421 1423 1426 1428 1429 1431 1431 1432 1432